Location: *
(53.9002°N, 27.5624°E)
Time: 10:28:21
(UTC+00:00)

Cosmos 1633 Rocket - Pass Details

Date: 12 November 2019
Orbit: 608 x 622 km, 82.5° (Epoch: 09 December)

Event Time Altitude Azimuth Distance (km) Brightness Sun altitude
Rises 15:18:59 0° 357° (N) 2,899 6.4 -9.3°
Reaches altitude 10° 15:21:43 10° 14° (NNE) 1,991 5.4 -9.6°
Maximum altitude 15:25:02 20° 63° (ENE) 1,425 4.3 -10.1°
Drops below altitude 10° 15:28:21 10° 112° (ESE) 1,987 5.2 -10.6°
Enters shadow 15:30:39 - 127° (SE) 2,744 6.0 -10.9°
